Weather in Kajaani

Finland     64°13′06″N   27°44′06″E
temp.,
°C
wind,
m/s
gust,
m/s
humid.,
%
clouds,
%
prec.,
mm/h
press.,
hPa
HPBL,
m
16 april, fri
fri1600:00−3wsw11941 0.0 103311
03:00−4sw11944 0.0 103411
06:00−5sw11935 0.0 103410
09:00+2wnw11801 0.0 1035120
12:00+6nnw11750 0.0 1035322
15:00+7nnw11724 0.0 1035530
18:00+6n13840 0.0 1035222
21:00−1ne229823 0.0 103610
17 april, sat
sat1700:00−2ene119972 0.0 103618
03:000e119897 0.0 103646
06:000e119999 0.0 103683
09:00+2ene019579 0.1 1036135
12:00+7nw117510 0.0 1036416
15:00+8nnw116910 0.0 1035551
18:00+7n227610 0.0 1034174
21:00+1ne119611 0.0 103410
18 april, sun
sun1800:000ese119614 0.0 103511
03:00−1ese219724 0.0 103517
06:00−1ese119730 0.0 103417
09:00+6s117669 0.0 1034206
12:00+9ssw1262100 0.0 1033762
15:00+10ssw1253100 0.0 10331026
18:00+9w1163100 0.0 103282
21:00+6sse007692 0.0 103210
19 april, mon
mon1900:00+4sse228454 0.0 103211
03:00+3s22887 0.0 103211
06:00+2sse22895 0.0 103219
09:00+7s24705 0.0 1032252
12:00+10s345546 0.0 1031898
15:00+11ssw23485 0.0 10301310
18:00+11s235112 0.0 10291320
21:00+7sse22745 0.0 102931
20 april, tue
tue2000:00+5sse22805 0.0 102826
03:00+3se22835 0.0 102822
06:00+3se228699 0.0 102724
09:00+7sse357114 0.0 1026322
12:00+9se33525 0.0 1024990
15:00+11se334088 0.0 10221321
18:00+10se3444100 0.0 10201290
21:00+6se256298 0.0 101997